This is the latest recevied weather packets stored in our database for station/object W2OBX. If no packets are shown the sender has not sent any weather packets the latest 10 day(s).
| Time | Temp. | Humidity | Pressure | Rain* | Wind** | Luminosity | Snow |
|---|---|---|---|---|---|---|---|
| 1778021335 | 22.22° C | 58% | 1011.7 hPa | 0 mm | - | 24 W/m² | - |
| 1778021033 | 22.22° C | 59% | 1011.7 hPa | 0 mm | - | 28 W/m² | - |
| 1778020730 | 22.78° C | 60% | 1011.6 hPa | 0 mm | - | 30 W/m² | - |
| 1778020426 | 22.78° C | 58% | 1011.7 hPa | 0 mm | - | 34 W/m² | - |
| 1778020122 | 22.78° C | 57% | 1011.7 hPa | 0 mm | - | 36 W/m² | - |
| 1778019819 | 22.78° C | 57% | 1011.8 hPa | 0 mm | - | 36 W/m² | - |
| 1778019516 | 22.78° C | 54% | 1012.1 hPa | 0 mm | - | 35 W/m² | - |
| 1778019212 | 22.78° C | 55% | 1011.8 hPa | 0 mm | - | 37 W/m² | - |
| 1778018910 | 23.33° C | 54% | 1011.8 hPa | 0 mm | - | 40 W/m² | - |
| 1778018606 | 23.33° C | 53% | 1011.9 hPa | 0 mm | - | 43 W/m² | - |
| 1778018305 | 23.33° C | 54% | 1012 hPa | 0 mm | - | 54 W/m² | - |
| 1778018003 | 23.33° C | 54% | 1012 hPa | 0 mm | - | 40 W/m² | - |
| 1778017700 | 23.33° C | 51% | 1011.9 hPa | 0 mm | - | 47 W/m² | - |
| 1778017397 | 23.33° C | 50% | 1012 hPa | 0 mm | - | 53 W/m² | - |
| 1778017094 | 23.89° C | 50% | 1012.1 hPa | 0 mm | - | 50 W/m² | - |
| 1778016792 | 23.89° C | 48% | 1011.9 hPa | 0 mm | - | 42 W/m² | - |
| 1778016488 | 23.89° C | 48% | 1011.9 hPa | 0 mm | - | 57 W/m² | - |
| 1778016185 | 23.89° C | 48% | 1012 hPa | 0 mm | - | 63 W/m² | - |
| 1778015881 | 23.89° C | 50% | 1012 hPa | 0 mm | - | 66 W/m² | - |
| 1778015579 | 23.89° C | 50% | 1011.9 hPa | 0 mm | - | 72 W/m² | - |
| 1778015275 | 23.89° C | 51% | 1012 hPa | 0 mm | - | 75 W/m² | - |
| 1778014973 | 23.89° C | 50% | 1012.3 hPa | 0 mm | - | 69 W/m² | - |
| 1778014669 | 23.89° C | 49% | 1012.1 hPa | 0 mm | - | 219 W/m² | - |
| 1778014368 | 23.89° C | 47% | 1012.2 hPa | 0 mm | - | 95 W/m² | - |
| 1778014064 | 23.89° C | 48% | 1012.2 hPa | 0 mm | - | 81 W/m² | - |
* Rain latest hour (hover to see other rain measurements)
** Current wind speed in m/s (hover to see current wind gust speed)